Regional Weather Roundup
Issued by NWS

Home | Current Version | Previous Version | Graphics & Text | Print | Product List | Glossary On
Versions: 1 2 3 4 5 6 7 8 9 10 11 12 13 14 15 16 17 18 19 20 21 22 23 24 25 26 27 28 29 30 31 32 33 34 35 36 37 38 39 40 41 42 43 44 45 46 47 48 49 50
000
ASUS43 KLSX 031559
RWRMO

WEATHER SUMMARY FOR MISSOURI
NATIONAL WEATHER SERVICE SPRINGFIELD MO
1000 AM CST TUE MAR 03 2015

NOTE: "FAIR" INDICATES FEW OR NO CLOUDS BELOW 12,000 FEET WITH NO
       SIGNIFICANT WEATHER AND/OR OBSTRUCTIONS TO VISIBILITY.
       CURRENT SKY AND/OR WEATHER CONDITIONS ARE NOT AVAILABLE FOR
       CHILLICOTHE AND FARMINGTON.

MOZ001>031-035>038-043-044-053-054-031700-
...NORTHERN AND WESTERN MISSOURI...

CITY           SKY/WX    TMP DP  RH WIND       PRES   REMARKS
KANSAS CTY INT CLOUDY    41  38  89 SW17G26   29.73R
KANSAS C DTWN  CLOUDY    43  38  82 SW12G22   29.74R
LEE`S SUMMIT   CLOUDY    41  38  89 SW17G31   29.75R
ST JOSEPH      CLOUDY    41  38  89 SW9       29.74R FOG
CHILLICOTHE      N/A     38  36  92 SW5       29.74R
KIRKSVILLE     FOG       34  34 100 SW9       29.73R VSB 1   WCI  27

$$
MOZ066>068-077>081-088>096-101>105-031700-
...SOUTHWEST MISSOURI...

CITY           SKY/WX    TMP DP  RH WIND       PRES   REMARKS
SPRINGFIELD    CLOUDY    44  42  93 SW20      29.83F
JOPLIN         CLOUDY    45  42  89 SW22G29   29.84F

$$
MOZ032>034-039>042-045>050-055>058-069>072-031700-
...CENTRAL MISSOURI...

CITY           SKY/WX    TMP DP  RH WIND       PRES   REMARKS
COLUMBIA       CLOUDY    38  37  97 S10       29.76S FOG
JEFFERSON CITY CLOUDY    42  38  85 CALM      29.78F
ROLLA          CLOUDY    42  40  92 SW17G26   29.78S
SEDALIA        CLOUDY    41  38  89 SW21G33   29.77R FOG
OSAGE BEACH    CLOUDY    48  43  81 SW10G28   29.79S

$$
MOZ051-052-059>065-031700-
...EAST CENTRAL MISSOURI...

CITY           SKY/WX    TMP DP  RH WIND       PRES   REMARKS
ST LOUIS INTL  CLOUDY    41  37  86 S7        29.79F FOG
SPIRIT OF STL  CLOUDY    44  40  85 SW9       29.77F
ST CHARLES     CLOUDY    37  35  92 SE5       29.79F FOG

$$
MOZ072>076-082>087-097>100-106>115-031700-
...SOUTH CENTRAL AND SOUTHEAST MISSOURI...

CITY           SKY/WX    TMP DP  RH WIND       PRES   REMARKS
CAPE GIRARDEAU FOG       36  36 100 SW10      29.97F VSB 3/4 WCI  28
FARMINGTON     CLOUDY    36  34  93 SW12      29.91F WCI  27
POPLAR BLUFF   FOG       35  33  92 SW9       29.98F VSB 3/4 WCI  28
WEST PLAINS    FOG       38  38 100 S6        29.91F VSB 1/4

$$


USA.gov is the U.S. government's official web portal to all federal, state and local government web resources and services.